Regional Weather Roundup
Issued by NWS Jackson, KY

Home | Current Version | Previous Version | Text Only | Print | Product List | Glossary Off
Versions: 1 2 3 4 5 6 7 8 9 10 11 12 13 14 15 16 17 18 19 20 21 22 23 24 25 26 27 28 29 30 31 32 33 34 35 36 37 38 39 40 41 42 43 44 45 46 47 48 49 50

000
ASUS43 KJKL 201919
RWRJKL

EAST KENTUCKY HOURLY WEATHER ROUNDUP
NATIONAL WEATHER SERVICE JACKSON KY
300 PM EDT SUN APR 20 2014

NOTE: "FAIR" INDICATES FEW OR NO CLOUDS BELOW 12,000 FEET WITH
NO SIGNIFICANT WEATHER AND/OR OBSTRUCTIONS TO VISIBILITY.

* THESE REPORTS ARE NOT UNDER NWS QUALITY CONTROL AND MAY NOT
  REPORT WEATHER SUCH AS PRECIPITATION AND FOG.

KYZ079-080-083-085-087-088-110-112-115-119-120-202000
...EASTERN KENTUCKY...

CITY           SKY/WX    TMP DP  RH WIND       PRES   REMARKS
JACKSON        SUNNY     75  33  21 N5        30.20F
LONDON         SUNNY     75  38  26 VRB7      30.19F
SOMERSET*      SUNNY     73  36  25 W5        30.20F
MONTICELLO*    SUNNY     77  43  29 VRB3      30.20F
MIDDLESBORO*   SUNNY     73  38  28 CALM      30.20F
HARLAN APT*    CLEAR     75  34  22 CALM      30.19F
BLACK MTN*       N/A     64  21  19 E2          N/A
PIKEVILLE APT* SUNNY     73  34  23 CALM      30.21F
BIG SANDY*     CLEAR     74  26  17 CALM      30.21F
ASHLAND*       SUNNY     75  37  25 SE8       30.18F
MOREHEAD APT*  CLEAR     75  39  27 W6        30.21F
$$

KYZ035-036-041-042-044-050-067-078-099-202000
...CENTRAL KENTUCKY...

CITY           SKY/WX    TMP DP  RH WIND       PRES   REMARKS
MT STERLING*   SUNNY     73  39  29 CALM      30.21F
FLEMING/MASON* SUNNY     73  43  33 S6        30.20F
DANVILLE*      SUNNY     72  41  33 CALM      30.21S
LEXINGTON      SUNNY     74  37  26 MISG      30.20F
FRANKFORT      SUNNY     75  39  27 VRB6      30.19F
$$

KYZ091>093-OHZ055-061-077-WVZ005-015-034-035-042-202000
...SOUTHERN OHIO/WEST VIRGINIA...

CITY           SKY/WX    TMP DP  RH WIND       PRES   REMARKS
COVINGTON      MOSUNNY   74  34  23 SW7       30.20F
COLUMBUS       PTSUNNY   74  38  27 VRB5      30.21F
DAYTON         MOSUNNY   72  34  24 VRB5      30.21F
WILMINGTON     SUNNY     72  39  30 S12       30.21F
HUNTINGTON     SUNNY     75  29  18 NE8       30.20F
CHARLESTON     MOSUNNY   75  21  13 VRB7      30.21F
PINEVILLE*     SUNNY     75  31  20 MISG      30.27F
BECKLEY        SUNNY     66  22  18 E10       30.26F
BLUEFIELD      SUNNY     69  24  18 SE9       30.26F
$$

VAZ002-007-008-TNZ017-027-036-066-071-202000
...SOUTHWEST VIRGINIA/EAST TENNESSEE...

CITY           SKY/WX    TMP DP  RH WIND       PRES   REMARKS
WISE*          SUNNY     70  19  14 W6        30.25F
ABINGDON*      SUNNY     71  28  20 E6        30.23F
BRISTOL        MOSUNNY   73  29  19 NW6       30.21F
KNOXVILLE      MOSUNNY   73  42  32 NE5       30.18
OAK RIDGE      SUNNY     74  38  27 CALM      30.20F
CROSSVILLE     SUNNY     73  35  25 VRB6      30.21F
NASHVILLE      MOSUNNY   78  40  25 S5        30.17F
$$

...KEY TO REMARKS...
VSB - VISIBILITY IN MILES
WCI - WIND CHILL INDEX
HX  - HEAT INDEX

$$



USA.gov is the U.S. government's official web portal to all federal, state and local government web resources and services.